User: anonymous
Location: Unspecified
(0.0000°N, 0.0000°E)
Time: 17:07:22
(UTC+02:00)
Language:

Cosmos 1933 - Orbit

View from above orbital plane
View from above orbital plane
View from above satellite
View from above satellite

Ground track
Ground track

The orbit data is extracted from the following two-line orbital elements,

1 18958U 88020A   14237.44049141  .00001731  00000-0  13433-3 0  4021
2 18958 082.5329 013.3160 0012987 165.4258 194.7344 15.00720116437362
Epoch (UTC): 25 August 2014 10:34:18
Eccentricity: 0.0012987
inclination: 82.5329°
perigee height: 555 km
apogee height: 573 km
right ascension of ascending node: 13.3160°
argument of perigee: 165.4258°
revolutions per day: 15.00720116
mean anomaly at epoch: 194.7344°
orbit number at epoch: 43736

The dashed part of the orbit path shows where the satellite is in the earth's shadow,  

DLR